Flag for Ireland Weather past 2 weeks in Letterkenny, Ireland

Now
51 °F

Rain showers. Overcast.


Feels Like: 46 °F
Forecast: 52 / 59 °F
Wind: 14 mph from Southwest

Location: Castlederg

Current Time: Aug 21, 2014 at 6:25:46 AM

Latest Report: Aug 21, 2014 at 5:00 AM


Visibility: 25 mi

Pressure: 29.86 "Hg

Humidity: 92%

Dew point: 48 °F

Location of LetterkennyLocation

Historic Weather in Letterkenny — Graph

°F

Letterkenny temperature yesterday

Maximum temperature yesterday: 58 °F (at 3:00 PM)
Minimum temperature yesterday: 47 °F (at 5:00 AM)
Average temperature yesterday: 52 °F

Past Weeks' High & Low Weather Summary

 TemperatureHumidityPressure
High67 °F (Aug 6, 1:00 PM)100% (Aug 6, 9:00 AM)30.17 "Hg (Aug 6, 9:00 AM)
Low43 °F (Aug 19, 6:00 AM)54% (Aug 15, 1:00 PM)29.41 "Hg (Aug 10, 12:00 PM)
Average56 °F81%29.80 "Hg
* Reported Aug 6 5:00 AM — Aug 21 5:00 AM, Letterkenny, Weather by CustomWeather, © 2014

Note: Actual official high and low records may vary slightly from our data, if they occured in-between our weather recording intervals... More about our weather records

Advertising

Letterkenny weather history for previous 24 hours

 ConditionsComfort  
Time TempWeatherWind HumidityBarometerVisibility
5:00 AM
Aug 21
51 °FRain showers. Overcast.14 mph92%29.86 "Hg25 mi
4:00 AM51 °FCool.10 mph91%29.89 "Hg31 mi
3:00 AM51 °FCool.8 mph89%29.92 "Hg25 mi
2:00 AM51 °FCool.13 mph89%29.95 "Hg31 mi
1:00 AM51 °FCool.3 mph86%29.97 "Hg31 mi
12:00 AM51 °FCool.8 mph83%29.99 "Hg31 mi
11:00 PM
Aug 20
52 °FCool.9 mph80%30.01 "Hg31 mi
10:00 PM52 °FCool.1 mph81%30.03 "Hg22 mi
9:00 PM53 °FCool.5 mph77%30.04 "Hg31 mi
8:00 PM55 °FCool.7 mph64%30.04 "Hg28 mi
7:00 PM56 °FCool.6 mph65%30.06 "Hg28 mi
6:00 PM57 °FRefreshingly cool.8 mph60%30.07 "Hg31 mi
5:00 PM58 °FRefreshingly cool.5 mph59%30.07 "Hg31 mi
4:00 PM57 °FCool.6 mph62%30.09 "Hg28 mi
3:00 PM58 °FRefreshingly cool.8 mph58%30.09 "Hg31 mi
2:00 PM57 °FCool.8 mph64%30.10 "Hg31 mi
1:00 PM55 °FCool.7 mph76%30.10 "Hg31 mi
12:00 PM54 °FCool.2 mph86%30.11 "Hg25 mi
11:00 AM55 °FCool.5 mph69%30.10 "Hg28 mi
10:00 AM52 °FCool.3 mph85%30.11 "Hg31 mi
9:00 AM51 °FLight freezing rain. Cloudy.7 mph86%30.11 "Hg3 mi
8:00 AM48 °FCool.5 mph90%30.10 "Hg28 mi
7:00 AM48 °FCool.3 mph88%30.09 "Hg28 mi
6:00 AM47 °FCool.3 mph86%30.09 "Hg31 mi
Weather by CustomWeather, © 2014

See weather overviewHow to use our weather pages